Time,TemperatureF,DewpointF,PressureIn,WindDirection,WindDirectionDegrees,WindSpeedMPH,WindSpeedGustMPH,Humidity,HourlyPrecipIn,Conditions,Clouds,dailyrainin,SoftwareType,DateUTC
2013-08-21 00:00:00,65.3,48.0,30.14,North,360,0.0,0.0,54,0.00,,---,0.00,VWS V14.00,2013-08-21 07:00:00,
2013-08-21 00:10:00,64.9,48.1,30.14,North,5,0.0,0.0,54,0.00,,---,0.00,VWS V14.00,2013-08-21 07:10:00,
2013-08-21 00:15:00,64.7,47.9,30.14,North,360,0.0,0.0,54,0.00,,---,0.00,VWS V14.00,2013-08-21 07:15:00,
2013-08-21 00:20:00,64.6,47.8,30.14,North,5,0.0,0.0,54,0.00,,---,0.00,VWS V14.00,2013-08-21 07:20:00,
2013-08-21 00:25:00,64.4,48.1,30.14,North,5,0.0,0.0,56,0.00,,---,0.00,VWS V14.00,2013-08-21 07:25:00,
2013-08-21 00:30:00,64.3,48.0,30.14,North,360,0.0,0.0,56,0.00,,---,0.00,VWS V14.00,2013-08-21 07:30:00,
2013-08-21 00:35:00,64.1,47.9,30.15,North,360,0.0,0.0,56,0.00,,---,0.00,VWS V14.00,2013-08-21 07:35:00,
2013-08-21 00:40:00,64.0,47.8,30.15,North,5,0.0,0.0,56,0.00,,---,0.00,VWS V14.00,2013-08-21 07:40:00,
2013-08-21 00:45:00,63.8,47.6,30.15,North,5,0.0,0.0,56,0.00,,---,0.00,VWS V14.00,2013-08-21 07:45:00,
2013-08-21 00:50:00,63.4,47.7,30.16,North,5,0.0,0.0,56,0.00,,---,0.00,VWS V14.00,2013-08-21 07:50:00,
2013-08-21 00:55:00,63.6,47.4,30.16,North,5,0.0,0.0,56,0.00,,---,0.00,VWS V14.00,2013-08-21 07:55:00,
2013-08-21 01:00:00,63.7,47.5,30.16,North,5,0.0,0.0,56,0.00,,---,0.00,VWS V14.00,2013-08-21 08:00:00,
2013-08-21 01:05:00,63.6,47.4,30.16,North,360,0.0,0.0,56,0.00,,---,0.00,VWS V14.00,2013-08-21 08:05:00,
2013-08-21 01:10:00,64.0,47.3,30.15,North,360,0.0,0.0,54,0.00,,---,0.00,VWS V14.00,2013-08-21 08:10:00,
2013-08-21 01:15:00,64.4,47.2,30.16,North,360,0.0,0.0,54,0.00,,---,0.00,VWS V14.00,2013-08-21 08:15:00,
2013-08-21 01:20:00,64.7,47.4,30.16,North,5,0.0,0.0,54,0.00,,---,0.00,VWS V14.00,2013-08-21 08:20:00,
2013-08-21 01:25:00,65.0,47.2,30.15,North,5,0.0,0.0,52,0.00,,---,0.00,VWS V14.00,2013-08-21 08:25:00,
2013-08-21 01:30:00,64.9,47.1,30.15,North,360,0.0,0.0,52,0.00,,---,0.00,VWS V14.00,2013-08-21 08:30:00,
2013-08-21 01:35:00,64.7,46.9,30.15,North,5,0.0,0.0,52,0.00,,---,0.00,VWS V14.00,2013-08-21 08:35:00,
2013-08-21 01:40:00,64.6,47.3,30.15,North,5,0.0,0.0,54,0.00,,---,0.00,VWS V14.00,2013-08-21 08:40:00,
2013-08-21 01:45:00,64.8,47.0,30.15,North,360,0.0,0.0,52,0.00,,---,0.00,VWS V14.00,2013-08-21 08:45:00,
2013-08-21 01:50:00,64.7,46.9,30.15,North,360,0.0,0.0,52,0.00,,---,0.00,VWS V14.00,2013-08-21 08:50:00,
2013-08-21 02:00:00,64.6,46.8,30.15,North,5,0.0,0.0,52,0.00,,---,0.00,VWS V14.00,2013-08-21 09:00:00,
2013-08-21 02:05:00,64.5,46.8,30.15,North,5,0.0,0.0,52,0.00,,---,0.00,VWS V14.00,2013-08-21 09:05:00,
2013-08-21 02:10:00,64.4,46.7,30.15,North,360,0.0,0.0,52,0.00,,---,0.00,VWS V14.00,2013-08-21 09:10:00,
2013-08-21 02:15:00,64.1,46.4,30.15,North,5,0.0,0.0,52,0.00,,---,0.00,VWS V14.00,2013-08-21 09:15:00,
2013-08-21 02:20:00,64.1,46.9,30.16,North,5,0.0,0.0,54,0.00,,---,0.00,VWS V14.00,2013-08-21 09:20:00,
2013-08-21 02:25:00,64.1,46.4,30.15,North,360,0.0,0.0,52,0.00,,---,0.00,VWS V14.00,2013-08-21 09:25:00,
2013-08-21 02:30:00,63.7,46.5,30.15,North,360,0.0,0.0,54,0.00,,---,0.00,VWS V14.00,2013-08-21 09:30:00,
2013-08-21 02:35:00,63.1,46.0,30.16,North,5,0.0,0.0,54,0.00,,---,0.00,VWS V14.00,2013-08-21 09:35:00,
2013-08-21 02:40:00,62.7,46.1,30.16,North,5,0.0,0.0,54,0.00,,---,0.00,VWS V14.00,2013-08-21 09:40:00,
2013-08-21 02:45:00,62.4,46.3,30.15,North,360,0.0,0.0,56,0.00,,---,0.00,VWS V14.00,2013-08-21 09:45:00,
2013-08-21 02:50:00,62.7,46.6,30.15,North,5,0.0,0.0,56,0.00,,---,0.00,VWS V14.00,2013-08-21 09:50:00,
2013-08-21 02:55:00,62.9,46.7,30.15,North,5,0.0,0.0,56,0.00,,---,0.00,VWS V14.00,2013-08-21 09:55:00,
2013-08-21 03:05:00,62.3,46.2,30.15,North,360,0.0,0.0,56,0.00,,---,0.00,VWS V14.00,2013-08-21 10:05:00,
2013-08-21 03:10:00,61.9,46.3,30.15,North,5,0.0,0.0,56,0.00,,---,0.00,VWS V14.00,2013-08-21 10:10:00,
2013-08-21 03:15:00,61.9,46.3,30.15,North,5,0.0,0.0,56,0.00,,---,0.00,VWS V14.00,2013-08-21 10:15:00,
2013-08-21 03:20:00,61.8,46.2,30.15,North,5,0.0,0.0,56,0.00,,---,0.00,VWS V14.00,2013-08-21 10:20:00,
2013-08-21 03:25:00,61.4,46.3,30.15,North,360,0.0,0.0,58,0.00,,---,0.00,VWS V14.00,2013-08-21 10:25:00,
2013-08-21 03:30:00,61.2,46.5,30.15,North,5,0.0,0.0,58,0.00,,---,0.00,VWS V14.00,2013-08-21 10:30:00,
2013-08-21 03:35:00,61.7,47.0,30.15,North,5,0.0,0.0,58,0.00,,---,0.00,VWS V14.00,2013-08-21 10:35:00,
2013-08-21 03:40:00,62.1,46.5,30.15,North,360,0.0,0.0,56,0.00,,---,0.00,VWS V14.00,2013-08-21 10:40:00,
2013-08-21 03:45:00,62.0,46.4,30.14,North,5,0.0,0.0,56,0.00,,---,0.00,VWS V14.00,2013-08-21 10:45:00,
2013-08-21 03:50:00,61.8,46.7,30.14,North,5,0.0,0.0,58,0.00,,---,0.00,VWS V14.00,2013-08-21 10:50:00,
2013-08-21 03:55:00,61.3,46.2,30.15,North,360,0.0,0.0,58,0.00,,---,0.00,VWS V14.00,2013-08-21 10:55:00,
2013-08-21 04:00:00,61.4,46.7,30.14,North,360,0.0,0.0,58,0.00,,---,0.00,VWS V14.00,2013-08-21 11:00:00,
2013-08-21 04:05:00,61.8,46.7,30.14,North,5,0.0,0.0,58,0.00,,---,0.00,VWS V14.00,2013-08-21 11:05:00,
2013-08-21 04:10:00,61.9,46.8,30.14,North,5,0.0,0.0,58,0.00,,---,0.00,VWS V14.00,2013-08-21 11:10:00,
2013-08-21 04:15:00,62.2,47.0,30.14,North,5,0.0,0.0,58,0.00,,---,0.00,VWS V14.00,2013-08-21 11:15:00,
2013-08-21 04:20:00,62.4,46.8,30.14,North,360,0.0,0.0,56,0.00,,---,0.00,VWS V14.00,2013-08-21 11:20:00,
2013-08-21 04:25:00,62.1,46.5,30.14,North,5,0.0,0.0,56,0.00,,---,0.00,VWS V14.00,2013-08-21 11:25:00,
2013-08-21 04:30:00,60.7,45.6,30.14,North,5,0.0,0.0,58,0.00,,---,0.00,VWS V14.00,2013-08-21 11:30:00,
2013-08-21 04:35:00,59.7,45.6,30.14,North,360,0.0,0.0,60,0.00,,---,0.00,VWS V14.00,2013-08-21 11:35:00,
2013-08-21 04:40:00,59.4,45.8,30.14,North,360,0.0,0.0,60,0.00,,---,0.00,VWS V14.00,2013-08-21 11:40:00,
2013-08-21 04:45:00,59.4,46.2,30.14,North,5,0.0,0.0,62,0.00,,---,0.00,VWS V14.00,2013-08-21 11:45:00,
2013-08-21 04:50:00,59.6,45.9,30.14,North,5,0.0,0.0,60,0.00,,---,0.00,VWS V14.00,2013-08-21 11:50:00,
2013-08-21 04:55:00,60.1,46.8,30.13,North,5,0.0,0.0,62,0.00,,---,0.00,VWS V14.00,2013-08-21 11:55:00,
2013-08-21 05:00:00,60.8,47.1,30.13,North,360,0.0,0.0,60,0.00,,---,0.00,VWS V14.00,2013-08-21 12:00:00,
2013-08-21 05:05:00,61.2,47.0,30.13,North,5,0.0,0.0,60,0.00,,---,0.00,VWS V14.00,2013-08-21 12:05:00,
2013-08-21 05:10:00,61.3,47.1,30.13,North,360,0.0,0.0,60,0.00,,---,0.00,VWS V14.00,2013-08-21 12:10:00,
2013-08-21 05:15:00,61.1,46.9,30.13,North,5,0.0,0.0,60,0.00,,---,0.00,VWS V14.00,2013-08-21 12:15:00,
2013-08-21 05:20:00,60.7,47.0,30.13,North,5,0.0,0.0,60,0.00,,---,0.00,VWS V14.00,2013-08-21 12:20:00,
2013-08-21 05:25:00,60.2,45.6,30.13,North,5,0.0,0.0,58,0.00,,---,0.00,VWS V14.00,2013-08-21 12:25:00,
2013-08-21 05:30:00,58.7,45.1,30.13,North,5,0.0,0.0,60,0.00,,---,0.00,VWS V14.00,2013-08-21 12:30:00,
2013-08-21 05:35:00,58.0,45.3,30.13,North,360,0.0,0.0,62,0.00,,---,0.00,VWS V14.00,2013-08-21 12:35:00,
2013-08-21 05:40:00,58.7,46.4,30.13,North,5,0.0,0.0,64,0.00,,---,0.00,VWS V14.00,2013-08-21 12:40:00,
2013-08-21 05:45:00,59.2,46.4,30.13,North,5,0.0,0.0,62,0.00,,---,0.00,VWS V14.00,2013-08-21 12:45:00,
2013-08-21 05:50:00,59.7,46.9,30.13,North,5,0.0,0.0,62,0.00,,---,0.00,VWS V14.00,2013-08-21 12:50:00,
2013-08-21 05:55:00,59.6,46.4,30.13,North,5,0.0,0.0,62,0.00,,---,0.00,VWS V14.00,2013-08-21 12:55:00,
2013-08-21 06:00:00,59.4,46.6,30.13,North,5,0.0,0.0,62,0.00,,---,0.00,VWS V14.00,2013-08-21 13:00:00,
2013-08-21 06:05:00,59.0,45.8,30.13,North,5,0.0,0.0,62,0.00,,---,0.00,VWS V14.00,2013-08-21 13:05:00,
2013-08-21 06:10:00,59.0,46.2,30.13,North,360,0.0,0.0,62,0.00,,---,0.00,VWS V14.00,2013-08-21 13:10:00,
2013-08-21 06:15:00,58.8,46.0,30.13,North,5,0.0,0.0,62,0.00,,---,0.00,VWS V14.00,2013-08-21 13:15:00,
2013-08-21 06:20:00,58.8,46.0,30.13,North,5,0.0,0.0,62,0.00,,---,0.00,VWS V14.00,2013-08-21 13:20:00,
2013-08-21 06:25:00,58.3,45.1,30.13,North,5,0.0,0.0,62,0.00,,---,0.00,VWS V14.00,2013-08-21 13:25:00,
2013-08-21 06:30:00,57.9,45.2,30.13,North,360,0.0,0.0,62,0.00,,---,0.00,VWS V14.00,2013-08-21 13:30:00,
2013-08-21 06:35:00,58.4,46.1,30.13,North,5,0.0,0.0,64,0.00,,---,0.00,VWS V14.00,2013-08-21 13:35:00,
2013-08-21 06:40:00,58.8,46.0,30.13,North,5,0.0,0.0,62,0.00,,---,0.00,VWS V14.00,2013-08-21 13:40:00,
2013-08-21 06:45:00,59.2,46.0,30.13,North,360,2.0,5.0,62,0.00,,---,0.00,VWS V14.00,2013-08-21 13:45:00,
2013-08-21 06:50:00,59.7,46.0,30.13,North,360,0.0,2.0,60,0.00,,---,0.00,VWS V14.00,2013-08-21 13:50:00,
2013-08-21 06:55:00,60.2,46.1,30.13,North,5,0.0,0.0,60,0.00,,---,0.00,VWS V14.00,2013-08-21 13:55:00,
2013-08-21 07:00:00,60.6,46.0,30.13,North,5,0.0,0.0,58,0.00,,---,0.00,VWS V14.00,2013-08-21 14:00:00,
2013-08-21 07:10:00,61.8,46.2,30.13,North,5,0.0,0.0,56,0.00,,---,0.00,VWS V14.00,2013-08-21 14:10:00,
2013-08-21 07:15:00,62.3,46.2,30.13,North,5,0.0,0.0,56,0.00,,---,0.00,VWS V14.00,2013-08-21 14:15:00,
2013-08-21 07:20:00,63.1,46.9,30.13,North,360,0.0,0.0,56,0.00,,---,0.00,VWS V14.00,2013-08-21 14:20:00,
2013-08-21 07:25:00,63.9,46.7,30.13,North,360,0.0,0.0,54,0.00,,---,0.00,VWS V14.00,2013-08-21 14:25:00,
2013-08-21 07:30:00,64.4,46.7,30.13,North,5,0.0,0.0,52,0.00,,---,0.00,VWS V14.00,2013-08-21 14:30:00,
2013-08-21 07:35:00,64.9,47.1,30.13,North,5,0.0,0.0,52,0.00,,---,0.00,VWS V14.00,2013-08-21 14:35:00,
2013-08-21 07:40:00,65.6,47.3,30.13,North,5,0.0,0.0,52,0.00,,---,0.00,VWS V14.00,2013-08-21 14:40:00,
2013-08-21 07:45:00,66.2,47.3,30.13,North,5,0.0,0.0,50,0.00,,---,0.00,VWS V14.00,2013-08-21 14:45:00,
2013-08-21 07:50:00,66.2,47.3,30.13,North,5,0.0,0.0,50,0.00,,---,0.00,VWS V14.00,2013-08-21 14:50:00,
2013-08-21 07:55:00,65.8,46.9,30.13,North,360,0.0,0.0,50,0.00,,---,0.00,VWS V14.00,2013-08-21 14:55:00,
2013-08-21 08:00:00,65.6,47.3,30.13,North,360,0.0,0.0,52,0.00,,---,0.00,VWS V14.00,2013-08-21 15:00:00,
2013-08-21 08:05:00,65.9,47.5,30.13,North,5,0.0,0.0,52,0.00,,---,0.00,VWS V14.00,2013-08-21 15:05:00,
2013-08-21 08:15:00,66.5,47.6,30.13,North,360,0.0,0.0,50,0.00,,---,0.00,VWS V14.00,2013-08-21 15:15:00,
2013-08-21 08:20:00,66.9,47.9,30.13,North,5,0.0,0.0,50,0.00,,---,0.00,VWS V14.00,2013-08-21 15:20:00,
2013-08-21 08:30:00,66.6,47.7,30.13,North,5,0.0,0.0,50,0.00,,---,0.00,VWS V14.00,2013-08-21 15:30:00,
2013-08-21 08:35:00,66.5,48.1,30.13,North,360,0.0,0.0,52,0.00,,---,0.00,VWS V14.00,2013-08-21 15:35:00,
2013-08-21 08:40:00,66.7,48.3,30.13,North,5,0.0,0.0,52,0.00,,---,0.00,VWS V14.00,2013-08-21 15:40:00,
2013-08-21 08:50:00,67.4,48.4,30.13,North,5,0.0,0.0,50,0.00,,---,0.00,VWS V14.00,2013-08-21 15:50:00,
2013-08-21 08:55:00,67.9,48.3,30.13,North,5,0.0,0.0,50,0.00,,---,0.00,VWS V14.00,2013-08-21 15:55:00,
2013-08-21 09:00:00,68.7,48.5,30.12,North,360,0.0,0.0,48,0.00,,---,0.00,VWS V14.00,2013-08-21 16:00:00,
2013-08-21 09:05:00,69.3,48.5,30.13,North,5,0.0,0.0,48,0.00,,---,0.00,VWS V14.00,2013-08-21 16:05:00,
2013-08-21 09:10:00,69.6,48.2,30.12,North,5,0.0,0.0,46,0.00,,---,0.00,VWS V14.00,2013-08-21 16:10:00,
2013-08-21 09:15:00,70.3,48.8,30.12,North,5,4.0,4.0,46,0.00,,---,0.00,VWS V14.00,2013-08-21 16:15:00,
2013-08-21 09:20:00,70.7,48.6,30.12,North,5,4.0,5.0,46,0.00,,---,0.00,VWS V14.00,2013-08-21 16:20:00,
2013-08-21 09:25:00,71.3,48.6,30.12,North,5,0.0,5.0,44,0.00,,---,0.00,VWS V14.00,2013-08-21 16:25:00,
2013-08-21 09:35:00,71.7,49.0,30.12,North,360,3.0,5.0,44,0.00,,---,0.00,VWS V14.00,2013-08-21 16:35:00,
2013-08-21 09:40:00,72.2,48.2,30.12,North,5,3.0,5.0,42,0.00,,---,0.00,VWS V14.00,2013-08-21 16:40:00,
2013-08-21 09:45:00,72.4,49.0,30.12,North,5,0.0,4.0,44,0.00,,---,0.00,VWS V14.00,2013-08-21 16:45:00,
2013-08-21 09:50:00,72.9,48.8,30.12,North,5,0.0,5.0,42,0.00,,---,0.00,VWS V14.00,2013-08-21 16:50:00,
2013-08-21 09:55:00,73.0,48.9,30.12,North,5,0.0,0.0,42,0.00,,---,0.00,VWS V14.00,2013-08-21 16:55:00,
2013-08-21 10:00:00,73.4,48.6,30.12,North,5,0.0,0.0,42,0.00,,---,0.00,VWS V14.00,2013-08-21 17:00:00,
2013-08-21 10:10:00,74.6,48.4,30.12,North,360,0.0,0.0,40,0.00,,---,0.00,VWS V14.00,2013-08-21 17:10:00,
2013-08-21 10:15:00,74.8,48.5,30.12,North,360,4.0,9.0,40,0.00,,---,0.00,VWS V14.00,2013-08-21 17:15:00,
2013-08-21 10:20:00,75.0,48.7,30.12,North,360,1.0,7.0,40,0.00,,---,0.00,VWS V14.00,2013-08-21 17:20:00,
2013-08-21 10:30:00,75.8,48.8,30.11,North,5,0.0,5.0,38,0.00,,---,0.00,VWS V14.00,2013-08-21 17:30:00,
2013-08-21 10:40:00,76.7,48.8,30.11,North,5,2.0,5.0,38,0.00,,---,0.00,VWS V14.00,2013-08-21 17:40:00,
2013-08-21 10:50:00,77.9,49.2,30.11,North,360,0.0,0.0,36,0.00,,---,0.00,VWS V14.00,2013-08-21 17:50:00,
2013-08-21 10:55:00,78.6,49.8,30.11,North,5,5.0,8.0,36,0.00,,---,0.00,VWS V14.00,2013-08-21 17:55:00,
2013-08-21 11:00:00,78.7,49.2,30.11,North,5,3.0,9.0,36,0.00,,---,0.00,VWS V14.00,2013-08-21 18:00:00,
2013-08-21 11:10:00,79.3,48.1,30.10,North,360,0.0,6.0,34,0.00,,---,0.00,VWS V14.00,2013-08-21 18:10:00,
2013-08-21 11:15:00,79.7,48.5,30.10,North,5,5.0,8.0,34,0.00,,---,0.00,VWS V14.00,2013-08-21 18:15:00,
2013-08-21 11:20:00,80.0,48.8,30.10,North,360,4.0,9.0,34,0.00,,---,0.00,VWS V14.00,2013-08-21 18:20:00,
2013-08-21 11:25:00,80.2,48.1,30.10,North,5,4.0,8.0,32,0.00,,---,0.00,VWS V14.00,2013-08-21 18:25:00,
2013-08-21 11:35:00,81.6,48.5,30.09,North,5,0.0,8.0,32,0.00,,---,0.00,VWS V14.00,2013-08-21 18:35:00,
2013-08-21 11:40:00,81.8,47.8,30.09,North,360,3.0,11.0,30,0.00,,---,0.00,VWS V14.00,2013-08-21 18:40:00,
2013-08-21 11:45:00,81.3,48.2,30.09,North,351,9.0,10.0,32,0.00,,---,0.00,VWS V14.00,2013-08-21 18:45:00,
2013-08-21 11:55:00,80.1,48.8,30.09,NNW,343,8.0,9.0,34,0.00,,---,0.00,VWS V14.00,2013-08-21 18:55:00,
2013-08-21 12:00:00,79.4,49.0,30.09,NNW,342,0.0,10.0,34,0.00,,---,0.00,VWS V14.00,2013-08-21 19:00:00,
2013-08-21 12:05:00,79.3,48.9,30.09,NNW,342,0.0,0.0,34,0.00,,---,0.00,VWS V14.00,2013-08-21 19:05:00,
2013-08-21 12:10:00,79.4,48.2,30.09,NNW,342,0.0,2.0,34,0.00,,---,0.00,VWS V14.00,2013-08-21 19:10:00,
2013-08-21 12:15:00,79.6,48.4,30.09,NNW,341,0.0,0.0,34,0.00,,---,0.00,VWS V14.00,2013-08-21 19:15:00,
2013-08-21 12:25:00,79.7,48.5,30.08,NNW,342,0.0,0.0,34,0.00,,---,0.00,VWS V14.00,2013-08-21 19:25:00,
2013-08-21 12:35:00,79.9,48.7,30.09,NNW,341,0.0,0.0,34,0.00,,---,0.00,VWS V14.00,2013-08-21 19:35:00,
2013-08-21 12:45:00,80.0,49.5,30.09,NNW,332,8.0,9.0,34,0.00,,---,0.00,VWS V14.00,2013-08-21 19:45:00,
2013-08-21 12:55:00,78.2,50.2,30.09,WSW,253,16.0,23.0,38,0.00,,---,0.00,VWS V14.00,2013-08-21 19:55:00,
2013-08-21 13:00:00,77.9,46.1,30.10,WSW,248,18.0,26.0,32,0.00,,---,0.00,VWS V14.00,2013-08-21 20:00:00,
2013-08-21 13:05:00,77.8,46.0,30.09,WSW,251,15.0,23.0,32,0.00,,---,0.00,VWS V14.00,2013-08-21 20:05:00,
2013-08-21 13:15:00,77.3,46.4,30.09,WNW,290,11.0,19.0,34,0.00,,---,0.00,VWS V14.00,2013-08-21 20:15:00,
2013-08-21 13:20:00,76.7,45.9,30.09,West,271,11.0,14.0,34,0.00,,---,0.00,VWS V14.00,2013-08-21 20:20:00,
2013-08-21 13:25:00,76.5,46.5,30.10,West,281,8.0,11.0,34,0.00,,---,0.00,VWS V14.00,2013-08-21 20:25:00,
2013-08-21 13:30:00,76.2,47.0,30.10,NNW,334,11.0,13.0,36,0.00,,---,0.00,VWS V14.00,2013-08-21 20:30:00,
2013-08-21 13:35:00,75.6,46.4,30.10,NW,322,7.0,13.0,36,0.00,,---,0.00,VWS V14.00,2013-08-21 20:35:00,
2013-08-21 13:45:00,75.7,45.8,30.10,NW,322,0.0,0.0,34,0.00,,---,0.00,VWS V14.00,2013-08-21 20:45:00,
2013-08-21 13:50:00,75.8,46.6,30.09,NW,319,5.0,9.0,36,0.00,,---,0.00,VWS V14.00,2013-08-21 20:50:00,
2013-08-21 13:55:00,75.5,47.1,30.09,NW,313,8.0,10.0,36,0.00,,---,0.00,VWS V14.00,2013-08-21 20:55:00,
2013-08-21 14:00:00,75.1,48.1,30.09,NW,313,0.0,9.0,38,0.00,,---,0.00,VWS V14.00,2013-08-21 21:00:00,
2013-08-21 14:10:00,74.1,47.9,30.09,NW,313,0.0,0.0,40,0.00,,---,0.00,VWS V14.00,2013-08-21 21:10:00,
2013-08-21 14:15:00,74.2,47.3,30.09,NW,313,0.0,0.0,38,0.00,,---,0.00,VWS V14.00,2013-08-21 21:15:00,
2013-08-21 14:25:00,74.7,47.1,30.10,NW,313,0.0,0.0,38,0.00,,---,0.00,VWS V14.00,2013-08-21 21:25:00,
2013-08-21 14:30:00,75.1,47.4,30.09,NW,313,0.0,0.0,38,0.00,,---,0.00,VWS V14.00,2013-08-21 21:30:00,
2013-08-21 14:40:00,76.4,47.1,30.10,NW,313,0.0,0.0,36,0.00,,---,0.00,VWS V14.00,2013-08-21 21:40:00,
2013-08-21 14:45:00,76.3,49.9,30.10,SSW,200,10.0,15.0,40,0.00,,---,0.00,VWS V14.00,2013-08-21 21:45:00,
2013-08-21 14:50:00,75.4,50.4,30.09,SSW,197,9.0,16.0,42,0.00,,---,0.00,VWS V14.00,2013-08-21 21:50:00,
2013-08-21 14:55:00,75.0,50.7,30.09,SSW,197,6.0,9.0,42,0.00,,---,0.00,VWS V14.00,2013-08-21 21:55:00,
2013-08-21 15:00:00,75.1,50.1,30.09,SSW,197,10.0,11.0,42,0.00,,---,0.00,VWS V14.00,2013-08-21 22:00:00,
2013-08-21 15:05:00,75.0,50.0,30.09,SSW,200,10.0,13.0,42,0.00,,---,0.00,VWS V14.00,2013-08-21 22:05:00,
2013-08-21 15:10:00,74.7,51.7,30.09,SW,223,9.0,14.0,44,0.00,,---,0.00,VWS V14.00,2013-08-21 22:10:00,
2013-08-21 15:20:00,73.5,51.8,30.09,SW,225,5.0,10.0,46,0.00,,---,0.00,VWS V14.00,2013-08-21 22:20:00,
2013-08-21 15:25:00,73.3,52.7,30.08,SW,225,7.0,9.0,48,0.00,,---,0.00,VWS V14.00,2013-08-21 22:25:00,
2013-08-21 15:30:00,73.0,53.5,30.08,SW,233,9.0,14.0,50,0.00,,---,0.00,VWS V14.00,2013-08-21 22:30:00,
2013-08-21 15:35:00,72.5,53.1,30.08,SW,233,8.0,12.0,50,0.00,,---,0.00,VWS V14.00,2013-08-21 22:35:00,
2013-08-21 15:40:00,72.6,53.2,30.08,SW,217,11.0,12.0,50,0.00,,---,0.00,VWS V14.00,2013-08-21 22:40:00,
2013-08-21 15:45:00,73.0,53.0,30.08,SW,215,7.0,12.0,50,0.00,,---,0.00,VWS V14.00,2013-08-21 22:45:00,
2013-08-21 15:50:00,72.9,52.4,30.09,SW,215,6.0,13.0,48,0.00,,---,0.00,VWS V14.00,2013-08-21 22:50:00,
2013-08-21 15:55:00,72.7,52.2,30.09,SW,215,10.0,11.0,48,0.00,,---,0.00,VWS V14.00,2013-08-21 22:55:00,
2013-08-21 16:05:00,74.2,54.1,30.07,SW,215,2.0,6.0,50,0.00,,---,0.00,VWS V14.00,2013-08-21 23:05:00,
2013-08-21 16:10:00,74.0,56.1,30.08,SW,215,4.0,7.0,54,0.00,,---,0.00,VWS V14.00,2013-08-21 23:10:00,
2013-08-21 16:15:00,73.5,54.0,30.07,SW,215,3.0,6.0,50,0.00,,---,0.00,VWS V14.00,2013-08-21 23:15:00,
2013-08-21 16:20:00,73.5,54.0,30.07,SW,215,5.0,7.0,50,0.00,,---,0.00,VWS V14.00,2013-08-21 23:20:00,
2013-08-21 16:25:00,73.5,54.0,30.07,SW,215,5.0,7.0,50,0.00,,---,0.00,VWS V14.00,2013-08-21 23:25:00,
2013-08-21 16:30:00,74.1,55.6,30.07,SW,215,0.0,5.0,52,0.00,,---,0.00,VWS V14.00,2013-08-21 23:30:00,
2013-08-21 16:35:00,74.8,54.1,30.08,SW,215,0.0,0.0,48,0.00,,---,0.00,VWS V14.00,2013-08-21 23:35:00,
2013-08-21 16:40:00,75.8,56.7,30.08,SW,215,6.0,7.0,52,0.00,,---,0.00,VWS V14.00,2013-08-21 23:40:00,
2013-08-21 16:45:00,75.6,53.1,30.08,SW,215,0.0,6.0,46,0.00,,---,0.00,VWS V14.00,2013-08-21 23:45:00,
2013-08-21 16:50:00,75.2,52.7,30.07,SW,215,0.0,0.0,46,0.00,,---,0.00,VWS V14.00,2013-08-21 23:50:00,
2013-08-21 16:55:00,75.1,52.6,30.08,SW,215,0.0,0.0,46,0.00,,---,0.00,VWS V14.00,2013-08-21 23:55:00,
2013-08-21 17:00:00,75.0,53.7,30.07,SW,215,0.0,0.0,48,0.00,,---,0.00,VWS V14.00,2013-08-22 00:00:00,
2013-08-21 17:05:00,74.6,52.8,30.07,SW,215,0.0,0.0,46,0.00,,---,0.00,VWS V14.00,2013-08-22 00:05:00,
2013-08-21 17:10:00,74.5,53.3,30.07,SW,215,0.0,0.0,48,0.00,,---,0.00,VWS V14.00,2013-08-22 00:10:00,
2013-08-21 17:15:00,74.4,53.2,30.07,SW,215,0.0,0.0,48,0.00,,---,0.00,VWS V14.00,2013-08-22 00:15:00,
2013-08-21 17:20:00,74.4,51.4,30.07,SW,215,0.0,0.0,44,0.00,,---,0.00,VWS V14.00,2013-08-22 00:20:00,
2013-08-21 17:25:00,74.6,51.0,30.07,SW,215,0.0,0.0,44,0.00,,---,0.00,VWS V14.00,2013-08-22 00:25:00,
2013-08-21 17:30:00,74.8,51.1,30.08,SW,215,0.0,4.0,44,0.01,,---,0.01,VWS V14.00,2013-08-22 00:30:00,
2013-08-21 17:35:00,74.2,57.8,30.08,SW,215,0.0,0.0,56,0.03,,---,0.03,VWS V14.00,2013-08-22 00:35:00,
2013-08-21 17:40:00,71.9,58.4,30.08,SW,215,0.0,0.0,62,0.04,,---,0.04,VWS V14.00,2013-08-22 00:40:00,
2013-08-21 17:45:00,70.5,55.3,30.07,SW,215,0.0,0.0,58,0.05,,---,0.05,VWS V14.00,2013-08-22 00:45:00,
2013-08-21 17:50:00,71.0,58.4,30.07,SW,215,0.0,0.0,64,0.06,,---,0.06,VWS V14.00,2013-08-22 00:50:00,
2013-08-21 17:55:00,71.0,60.1,30.07,SW,215,0.0,0.0,68,0.06,,---,0.06,VWS V14.00,2013-08-22 00:55:00,
2013-08-21 18:00:00,70.6,54.9,30.07,SW,215,0.0,0.0,58,0.06,,---,0.06,VWS V14.00,2013-08-22 01:00:00,
2013-08-21 18:05:00,70.8,56.0,30.08,SW,215,0.0,0.0,60,0.06,,---,0.06,VWS V14.00,2013-08-22 01:05:00,
2013-08-21 18:10:00,70.8,58.2,30.08,SW,215,8.0,8.0,64,0.06,,---,0.06,VWS V14.00,2013-08-22 01:10:00,
2013-08-21 18:15:00,70.4,58.7,30.08,SSW,210,0.0,8.0,66,0.06,,---,0.06,VWS V14.00,2013-08-22 01:15:00,
2013-08-21 18:20:00,68.7,57.9,30.08,SW,215,0.0,0.0,68,0.07,,---,0.07,VWS V14.00,2013-08-22 01:20:00,
2013-08-21 18:25:00,68.4,58.8,30.07,SW,215,0.0,0.0,72,0.07,,---,0.07,VWS V14.00,2013-08-22 01:25:00,
2013-08-21 18:30:00,68.4,60.0,30.08,SSW,200,0.0,0.0,74,0.07,,---,0.07,VWS V14.00,2013-08-22 01:30:00,
2013-08-21 18:35:00,68.4,60.0,30.08,SSW,200,0.0,2.0,74,0.06,,---,0.07,VWS V14.00,2013-08-22 01:35:00,
2013-08-21 18:40:00,68.0,58.8,30.08,South,190,1.0,9.0,72,0.04,,---,0.07,VWS V14.00,2013-08-22 01:40:00,
2013-08-21 18:45:00,67.6,58.1,30.08,South,186,0.0,4.0,72,0.03,,---,0.07,VWS V14.00,2013-08-22 01:45:00,
2013-08-21 18:50:00,67.6,56.9,30.08,South,186,0.0,0.0,68,0.02,,---,0.07,VWS V14.00,2013-08-22 01:50:00,
2013-08-21 18:55:00,67.8,58.7,30.08,South,186,0.0,0.0,72,0.01,,---,0.07,VWS V14.00,2013-08-22 01:55:00,
2013-08-21 19:00:00,67.7,58.2,30.08,South,186,0.0,0.0,72,0.01,,---,0.07,VWS V14.00,2013-08-22 02:00:00,
2013-08-21 19:05:00,67.6,58.1,30.09,South,186,0.0,0.0,72,0.01,,---,0.07,VWS V14.00,2013-08-22 02:05:00,
2013-08-21 19:10:00,67.4,57.1,30.10,South,186,0.0,0.0,70,0.01,,---,0.07,VWS V14.00,2013-08-22 02:10:00,
2013-08-21 19:15:00,67.4,57.9,30.10,South,186,4.0,7.0,72,0.01,,---,0.07,VWS V14.00,2013-08-22 02:15:00,
2013-08-21 19:20:00,67.1,58.4,30.10,South,173,8.0,8.0,74,0.02,,---,0.08,VWS V14.00,2013-08-22 02:20:00,
2013-08-21 19:25:00,66.4,56.9,30.10,SE,136,8.0,11.0,72,0.01,,---,0.08,VWS V14.00,2013-08-22 02:25:00,
2013-08-21 19:30:00,65.6,56.2,30.09,East,87,9.0,14.0,72,0.01,,---,0.08,VWS V14.00,2013-08-22 02:30:00,
2013-08-21 19:35:00,64.7,56.0,30.09,East,79,10.0,13.0,74,0.01,,---,0.08,VWS V14.00,2013-08-22 02:35:00,
2013-08-21 19:40:00,64.6,56.3,30.09,ENE,76,10.0,13.0,74,0.01,,---,0.08,VWS V14.00,2013-08-22 02:40:00,
2013-08-21 19:45:00,64.3,54.5,30.09,ENE,74,10.0,12.0,70,0.01,,---,0.08,VWS V14.00,2013-08-22 02:45:00,
2013-08-21 19:50:00,63.8,53.2,30.09,ENE,74,8.0,12.0,68,0.01,,---,0.08,VWS V14.00,2013-08-22 02:50:00,
2013-08-21 19:55:00,63.1,53.0,30.09,ENE,74,7.0,11.0,70,0.01,,---,0.08,VWS V14.00,2013-08-22 02:55:00,
2013-08-21 20:00:00,62.8,52.3,30.09,ENE,74,7.0,12.0,68,0.01,,---,0.08,VWS V14.00,2013-08-22 03:00:00,
2013-08-21 20:05:00,62.4,52.7,30.10,ENE,74,6.0,10.0,70,0.01,,---,0.08,VWS V14.00,2013-08-22 03:05:00,
2013-08-21 20:10:00,61.6,53.1,30.09,ENE,74,9.0,11.0,74,0.01,,---,0.08,VWS V14.00,2013-08-22 03:10:00,
2013-08-21 20:15:00,61.1,53.3,30.09,ENE,74,8.0,11.0,76,0.01,,---,0.08,VWS V14.00,2013-08-22 03:15:00,
2013-08-21 20:20:00,60.8,53.4,30.10,ENE,74,11.0,11.0,76,0.01,,---,0.08,VWS V14.00,2013-08-22 03:20:00,
2013-08-21 20:25:00,61.0,53.6,30.10,ENE,74,4.0,11.0,76,0.00,,---,0.08,VWS V14.00,2013-08-22 03:25:00,
2013-08-21 20:30:00,60.8,53.4,30.10,ENE,74,0.0,7.0,76,0.00,,---,0.08,VWS V14.00,2013-08-22 03:30:00,
2013-08-21 20:35:00,60.8,53.4,30.10,ENE,74,0.0,0.0,76,0.00,,---,0.08,VWS V14.00,2013-08-22 03:35:00,
2013-08-21 20:40:00,60.8,53.0,30.10,ENE,74,0.0,0.0,76,0.00,,---,0.08,VWS V14.00,2013-08-22 03:40:00,
2013-08-21 20:45:00,60.5,53.4,30.10,ENE,74,0.0,0.0,78,0.00,,---,0.08,VWS V14.00,2013-08-22 03:45:00,
2013-08-21 20:50:00,60.1,53.0,30.11,ENE,74,0.0,0.0,78,0.00,,---,0.08,VWS V14.00,2013-08-22 03:50:00,
2013-08-21 20:55:00,60.0,53.3,30.11,ENE,74,0.0,0.0,78,0.00,,---,0.08,VWS V14.00,2013-08-22 03:55:00,
2013-08-21 21:00:00,60.2,52.4,30.11,ENE,74,0.0,0.0,76,0.00,,---,0.08,VWS V14.00,2013-08-22 04:00:00,
2013-08-21 21:05:00,61.0,52.5,30.11,ENE,74,0.0,0.0,74,0.00,,---,0.08,VWS V14.00,2013-08-22 04:05:00,
2013-08-21 21:10:00,61.2,52.7,30.11,ENE,74,0.0,0.0,74,0.00,,---,0.08,VWS V14.00,2013-08-22 04:10:00,
2013-08-21 21:15:00,60.8,52.7,30.11,ENE,74,0.0,0.0,74,0.00,,---,0.08,VWS V14.00,2013-08-22 04:15:00,
2013-08-21 21:20:00,61.2,52.3,30.11,ENE,74,0.0,0.0,72,0.00,,---,0.08,VWS V14.00,2013-08-22 04:20:00,
2013-08-21 21:25:00,61.4,52.9,30.11,ENE,74,0.0,0.0,74,0.00,,---,0.08,VWS V14.00,2013-08-22 04:25:00,
2013-08-21 21:30:00,60.8,53.0,30.11,ENE,74,0.0,0.0,76,0.00,,---,0.08,VWS V14.00,2013-08-22 04:30:00,
2013-08-21 21:35:00,60.2,52.8,30.11,ENE,74,0.0,0.0,76,0.00,,---,0.08,VWS V14.00,2013-08-22 04:35:00,
2013-08-21 21:40:00,60.2,52.4,30.12,ENE,74,0.0,0.0,76,0.00,,---,0.08,VWS V14.00,2013-08-22 04:40:00,
2013-08-21 21:45:00,59.9,52.5,30.12,ENE,74,0.0,0.0,76,0.00,,---,0.08,VWS V14.00,2013-08-22 04:45:00,
2013-08-21 21:50:00,59.5,52.5,30.11,ENE,74,0.0,5.0,78,0.00,,---,0.08,VWS V14.00,2013-08-22 04:50:00,
2013-08-21 21:55:00,60.1,52.3,30.12,ENE,74,0.0,0.0,76,0.00,,---,0.08,VWS V14.00,2013-08-22 04:55:00,
2013-08-21 22:00:00,59.8,52.4,30.12,ENE,74,0.0,0.0,76,0.00,,---,0.08,VWS V14.00,2013-08-22 05:00:00,
2013-08-21 22:05:00,59.0,52.0,30.12,ENE,74,0.0,0.0,78,0.00,,---,0.08,VWS V14.00,2013-08-22 05:05:00,
2013-08-21 22:10:00,59.0,52.3,30.12,ENE,74,4.0,7.0,78,0.00,,---,0.08,VWS V14.00,2013-08-22 05:10:00,
2013-08-21 22:15:00,59.0,52.3,30.12,ENE,74,9.0,9.0,78,0.00,,---,0.08,VWS V14.00,2013-08-22 05:15:00,
2013-08-21 22:20:00,59.2,52.2,30.12,ENE,74,0.0,10.0,78,0.00,,---,0.08,VWS V14.00,2013-08-22 05:20:00,
2013-08-21 22:25:00,58.7,52.0,30.12,ENE,74,0.0,0.0,78,0.00,,---,0.08,VWS V14.00,2013-08-22 05:25:00,
2013-08-21 22:30:00,58.2,52.2,30.12,ENE,74,0.0,0.0,80,0.00,,---,0.08,VWS V14.00,2013-08-22 05:30:00,
2013-08-21 22:35:00,58.4,52.1,30.12,ENE,74,6.0,8.0,80,0.00,,---,0.08,VWS V14.00,2013-08-22 05:35:00,
2013-08-21 22:40:00,58.6,52.3,30.12,ENE,74,7.0,9.0,80,0.00,,---,0.08,VWS V14.00,2013-08-22 05:40:00,
2013-08-21 22:45:00,58.8,52.1,30.12,ENE,74,6.0,7.0,78,0.00,,---,0.08,VWS V14.00,2013-08-22 05:45:00,
2013-08-21 22:50:00,58.6,51.9,30.12,ENE,74,6.0,9.0,78,0.00,,---,0.08,VWS V14.00,2013-08-22 05:50:00,
2013-08-21 22:55:00,58.8,52.1,30.12,ENE,74,0.0,7.0,78,0.00,,---,0.08,VWS V14.00,2013-08-22 05:55:00,
2013-08-21 23:00:00,58.4,52.1,30.12,ENE,74,0.0,0.0,80,0.00,,---,0.08,VWS V14.00,2013-08-22 06:00:00,
2013-08-21 23:05:00,58.6,51.9,30.12,ENE,74,5.0,8.0,78,0.00,,---,0.08,VWS V14.00,2013-08-22 06:05:00,
2013-08-21 23:10:00,58.5,51.5,30.12,ENE,74,0.0,7.0,78,0.00,,---,0.08,VWS V14.00,2013-08-22 06:10:00,
2013-08-21 23:15:00,58.3,51.3,30.12,ENE,74,0.0,0.0,78,0.00,,---,0.08,VWS V14.00,2013-08-22 06:15:00,
2013-08-21 23:20:00,58.4,51.4,30.12,ENE,74,0.0,0.0,78,0.00,,---,0.08,VWS V14.00,2013-08-22 06:20:00,
2013-08-21 23:25:00,59.1,51.0,30.13,ENE,74,0.0,0.0,74,0.00,,---,0.08,VWS V14.00,2013-08-22 06:25:00,
2013-08-21 23:30:00,59.4,50.9,30.13,ENE,74,0.0,0.0,74,0.00,,---,0.08,VWS V14.00,2013-08-22 06:30:00,
2013-08-21 23:35:00,59.0,50.5,30.13,ENE,74,0.0,0.0,74,0.00,,---,0.08,VWS V14.00,2013-08-22 06:35:00,
2013-08-21 23:40:00,59.0,50.9,30.13,ENE,74,0.0,0.0,74,0.01,,---,0.09,VWS V14.00,2013-08-22 06:40:00,
2013-08-21 23:45:00,59.0,50.5,30.13,ENE,74,0.0,0.0,74,0.01,,---,0.09,VWS V14.00,2013-08-22 06:45:00,
2013-08-21 23:50:00,58.7,50.6,30.13,ENE,74,0.0,0.0,74,0.01,,---,0.09,VWS V14.00,2013-08-22 06:50:00,
2013-08-21 23:55:00,58.6,50.2,30.13,ENE,74,0.0,0.0,74,0.01,,---,0.09,VWS V14.00,2013-08-22 06:55:00,